RH
65 62 58 64 59 67 66 74 78 81 82 86 90 90 90 93 93 78 67 50 57 53 56 34 40 39 44 49 46 45 59 68 56 52 42 34 30 29 27 28 38 41 50 47 46
66 66 65 57 63 58 64 65 75 79 80 81 86 94 92 93 92 78 51 54 55 65 49 34 40 44 53 47 45 49 65 54 41 28 35 34 33 28 27 32 44 68 55 46 50
64 66 66 67 67 64 64 63 68 75 77 78 81 87 94 88 81 47 52 58 60 61 32 30 38 45 53 49 45 50 55 44 35 32 24 29 30 26 30 37 38 45 58 54 54
62 67 69 67 66 68 70 69 63 65 75 74 77 82 93 76 70 37 64 67 68 48 38 39 45 50 49 46 38 50 39 37 36 32 24 27 25 31 29 28 24 45 51 54 55
60 66 68 69 67 68 70 70 70 63 70 75 75 77 94 93 67 36 55 57 61 40 35 41 48 42 44 42 42 44 38 35 33 31 27 26 29 27 25 24 26 45 58 55 54
58 68 68 70 69 69 70 70 69 68 67 72 74 77 94 97 51 40 38 34 41 54 36 40 42 38 40 38 40 36 36 32 33 28 28 26 27 26 24 24 24 48 61 57 56
53 63 68 71 71 67 70 70 70 69 68 69 71 69 94 84 52 43 47 38 34 53 38 33 36 33 35 36 31 33 39 33 29 29 28 28 31 30 24 24 24 33 59 59 60
58 56 65 70 73 69 69 71 73 72 71 71 70 71 94 57 57 60 57 56 46 33 47 32 36 42 38 32 32 33 36 39 30 28 28 27 38 29 26 28 26 26 26 40 51
59 62 64 66 69 71 69 69 71 73 72 68 78 83 90 65 72 62 58 60 45 34 36 34 37 44 41 43 47 48 46 40 34 26 27 31 37 27 25 24 25 24 29 26 26
55 61 64 63 67 70 71 70 71 72 72 63 67 91 72 80 63 59 56 52 50 40 42 43 51 49 51 50 57 49 41 37 36 28 31 34 33 26 22 22 21 21 22 22 22
57 59 58 62 65 70 78 92 83 83 77 79 73 83 62 59 51 57 54 55 44 44 54 52 59 62 54 42 38 37 38 38 34 28 32 33 27 25 25 28 27 28 25 24 22
58 62 60 61 65 70 87 99 84 92 86 63 58 53 50 57 77 63 52 59 52 55 54 58 65 51 39 36 38 38 40 40 34 28 30 33 32 27 27 26 28 25 28 27 24
61 62 65 64 64 81 83 82 84 78 97 69 56 55 49 55 75 74 45 50 51 56 53 56 49 42 36 37 38 39 41 38 36 32 35 40 42 35 29 33 27 26 26 26 24
63 62 65 66 77 86 78 75 73 81 99 71 82 60 55 59 86 57 37 41 40 58 50 56 40 44 41 40 36 42 34 34 36 40 47 37 57 44 36 32 30 25 28 28 28
64 66 65 65 82 92 76 70 70 87 98 46 68 49 46 65 54 65 49 35 45 49 47 56 50 47 47 40 34 36 33 33 37 45 52 49 56 49 35 30 23 20 26 26 30
64 66 66 71 88 78 72 75 88 99 94 60 67 85 80 68 64 56 66 50 38 43 40 46 43 38 41 34 31 32 34 40 49 53 61 50 48 55 36 29 27 24 27 28 29
62 64 64 59 79 69 78 94 99 98 51 60 61 58 77 80 70 71 67 70 70 66 77 52 46 42 36 41 37 34 44 66 66 72 57 49 52 34 35 29 27 25 27 26 25
66 65 67 60 60 70 93 97 98 63 54 33 49 54 84 74 75 73 82 83 58 50 86 80 70 44 38 36 42 37 36 62 68 79 59 44 55 42 29 22 25 23 23 25 27
69 83 88 70 65 87 91 99 89 70 52 54 49 63 69 66 86 72 75 70 61 43 60 76 68 43 39 35 31 47 42 35 54 66 65 57 48 32 30 31 24 23 23 24 28
96 96 86 62 76 93 95 83 82 62 49 48 75 65 97 90 84 85 74 58 61 46 41 50 67 44 40 37 32 34 31 48 58 74 78 66 58 44 36 28 26 26 26 27 28
97 98 73 85 86 95 96 92 70 62 54 65 68 72 65 94 90 87 94 57 58 66 45 46 47 52 44 43 43 48 39 50 43 63 70 72 59 37 29 26 26 24 26 32 33
93 99 78 84 99 100 91 71 57 65 60 69 67 65 66 63 79 95 88 95 66 56 65 45 80 55 47 37 32 41 37 42 47 60 55 66 48 34 32 30 26 25 26 33 38
88 82 72 89 100 100 98 92 79 77 74 70 69 61 55 68 95 95 98 86 78 70 59 44 72 94 62 50 43 38 42 34 42 56 58 60 53 32 33 32 27 27 27 32 40
99 95 94 98 94 94 96 91 84 75 83 68 73 69 71 73 72 87 77 64 80 97 93 48 70 87 80 65 59 60 41 38 40 62 49 49 47 39 34 31 30 29 28 35 42
99 92 88 99 92 97 94 96 78 78 70 75 84 87 95 93 68 68 54 61 82 84 94 76 75 84 70 62 51 48 44 43 44 39 49 38 45 34 32 31 30 29 31 36 42
99 94 83 88 95 85 81 89 67 66 65 73 82 75 69 90 95 92 71 78 91 94 99 96 97 96 89 69 49 47 40 40 41 39 38 44 43 35 32 36 32 29 31 34 41
98 89 96 79 93 94 90 78 71 66 60 60 68 70 75 65 62 63 62 70 95 100 99 100 99 95 96 84 90 69 46 44 40 36 37 45 35 38 38 34 33 31 32 29 32
Wind_Speed
18 19 19 20 18 19 21 20 19 17 19 21 22 13 12 11 13 3 9 12 10 13 4 2 2 3 3 2 2 4 2 2 4 1 6 2 4 0 2 7 2 1 8 6 16
19 20 21 21 19 19 18 21 20 17 17 19 21 19 9 9 6 12 17 20 19 11 3 5 4 2 1 2 2 4 4 7 5 3 5 2 3 4 5 3 4 2 4 13 18
21 21 20 20 20 20 20 19 19 21 17 17 20 20 9 4 6 10 7 15 22 16 7 6 2 2 3 2 4 5 6 4 4 5 6 5 2 4 8 2 6 10 8 16 13
21 21 22 21 20 21 20 19 20 20 21 17 18 23 18 3 8 2 5 1 13 8 5 4 4 3 5 7 6 3 8 5 7 2 5 1 5 1 5 5 5 10 16 16 15
21 22 21 21 21 21 20 21 20 20 21 18 16 19 10 7 12 10 13 2 4 4 8 7 6 6 7 6 3 5 8 5 8 6 7 3 3 3 5 5 2 9 10 16 15
17 21 21 21 21 22 21 22 21 18 20 19 18 18 9 17 5 12 16 7 9 6 6 8 8 9 4 8 8 6 11 13 6 8 5 6 6 6 6 5 6 10 13 16 17
20 21 21 21 21 22 23 23 22 19 19 21 20 13 13 21 5 6 4 4 5 10 9 9 8 5 5 4 8 7 7 7 6 6 8 6 7 7 9 5 7 9 10 13 15
20 18 19 20 21 21 22 23 24 23 22 21 21 12 13 10 18 21 20 17 11 7 11 7 7 6 4 4 3 4 5 7 5 8 6 10 13 7 11 7 11 10 10 11 13
18 19 19 20 21 22 22 24 27 30 25 20 14 9 12 12 20 11 10 10 8 4 5 11 6 7 3 5 3 2 4 6 5 8 5 8 7 9 10 8 13 10 10 11 11
19 17 19 20 21 23 25 28 29 25 12 9 9 8 14 16 8 11 22 19 9 5 2 6 5 6 3 6 12 6 7 6 6 4 8 7 11 8 6 7 10 9 9 9 10
18 18 20 20 21 22 19 6 7 3 2 7 6 13 6 15 8 17 12 13 7 5 10 5 7 17 21 12 8 7 5 8 4 5 5 12 16 16 11 5 9 10 10 10 11
18 17 18 20 21 22 6 4 4 6 13 14 20 21 25 13 6 15 13 14 14 21 9 4 22 18 8 11 12 8 9 8 8 8 8 8 15 14 8 9 9 14 11 12 10
19 16 17 17 22 6 6 7 2 10 7 13 15 13 15 9 11 9 19 14 16 17 19 20 10 14 13 13 18 18 18 12 8 4 3 0 6 7 9 6 13 12 10 9 15
18 17 15 15 6 5 8 2 7 3 6 9 7 12 11 11 11 22 11 16 6 23 18 13 17 19 15 19 18 21 12 10 8 4 6 7 6 6 7 11 9 16 10 13 13
18 17 15 10 4 3 5 10 10 1 7 7 7 4 12 16 7 13 21 12 19 8 12 17 20 19 23 24 18 16 11 12 8 5 4 4 3 8 7 11 20 16 12 13 12
17 17 16 6 3 5 6 9 2 4 11 7 4 6 7 16 18 4 15 12 8 17 15 15 5 14 14 18 20 7 6 3 4 4 7 7 6 6 8 14 10 13 9 10 9
16 17 14 6 8 2 5 4 2 8 7 6 6 8 13 15 22 13 14 24 15 15 16 17 23 10 6 10 8 10 8 2 3 4 11 8 7 16 9 13 11 13 10 9 9
15 17 12 11 10 3 2 3 10 5 13 16 14 20 11 16 19 27 21 18 23 12 7 12 11 26 14 20 12 22 16 8 10 5 6 7 10 8 17 19 8 9 8 8 7
10 4 4 6 8 5 5 9 5 5 6 7 13 11 13 9 12 25 29 26 24 22 15 15 17 10 10 9 19 7 19 13 6 3 3 6 7 10 9 5 8 8 6 8 8
1 3 5 3 6 7 5 13 7 8 13 12 4 6 7 15 12 13 23 29 26 28 17 6 11 11 30 4 16 16 14 8 3 8 6 5 6 7 3 8 8 8 10 8 7
2 4 4 5 5 4 8 7 9 17 14 5 7 12 13 8 12 18 14 12 31 26 24 19 13 7 11 22 18 8 14 4 5 5 7 2 8 9 13 10 13 12 10 10 9
2 3 3 2 1 3 6 5 6 10 6 9 6 14 16 13 8 10 11 14 13 28 35 28 1 13 20 19 16 8 13 10 11 17 7 4 10 4 10 8 10 11 9 8 7
2 5 4 4 3 3 3 6 6 6 8 6 6 5 8 11 6 9 7 6 23 19 28 23 9 7 11 8 2 21 11 25 11 5 12 10 8 5 6 6 11 12 9 8 8
3 4 4 1 2 4 5 5 5 10 11 6 6 9 15 15 14 7 12 15 20 16 36 28 10 14 15 31 27 33 29 21 19 5 13 19 7 4 6 9 7 8 9 9 10
3 4 4 3 4 1 4 0 7 5 7 2 4 4 9 5 13 20 17 17 8 16 15 11 25 19 18 8 22 28 29 21 23 29 14 26 14 13 11 11 13 10 6 7 8
4 4 4 4 3 6 5 4 8 10 6 5 4 8 10 5 9 13 16 9 8 6 7 14 6 12 21 15 14 24 26 25 25 35 27 8 11 7 9 6 6 8 8 8 8
3 1 3 4 4 4 5 7 7 5 7 6 9 10 10 13 11 12 14 15 7 2 8 6 3 16 13 19 13 14 24 30 32 22 27 25 17 6 6 11 12 12 11 14 12
Wind_Direction
339 337 333 329 320 320 312 321 322 330 329 328 333 276 285 298 306 288 250 226 204 245 180 280 169 249 123 231 195 123 77 242 266 273 235 191 160 347 140 107 84 208 157 194 154
339 338 335 329 325 318 318 306 318 323 323 325 325 313 274 309 285 258 247 230 227 226 215 200 234 211 310 221 214 128 155 219 208 274 285 142 103 150 110 96 30 34 19 134 149
340 336 334 334 328 321 317 313 307 315 313 320 322 316 268 319 288 249 270 240 229 240 212 178 109 156 206 164 214 190 209 204 247 319 333 332 69 145 122 186 193 188 163 154 162
334 337 332 332 332 326 324 314 306 302 308 309 319 324 301 188 245 316 24 69 177 155 171 171 142 172 205 209 203 209 247 203 272 271 299 295 292 290 154 186 175 182 164 161 173
334 335 335 329 332 328 322 318 306 302 303 311 312 302 304 211 232 281 308 356 132 167 190 176 174 166 200 198 227 203 259 230 260 257 240 212 214 231 264 180 138 159 158 180 186
336 334 333 334 332 331 325 317 305 298 300 300 300 307 271 239 259 261 270 282 221 195 205 172 205 198 221 216 177 210 226 252 256 233 221 209 233 151 255 256 158 153 188 191 190
336 333 336 332 331 330 326 320 308 298 293 289 288 295 260 249 227 270 316 263 290 214 219 208 213 183 169 282 229 231 253 268 211 209 223 166 278 223 235 262 267 197 211 205 209
334 331 334 335 329 327 325 320 308 293 279 279 284 284 259 254 242 264 278 290 263 235 239 232 181 204 171 267 308 180 142 214 243 174 230 157 254 252 242 227 253 251 216 219 226
328 338 334 332 329 322 323 316 303 284 278 275 278 237 262 185 227 226 226 240 274 260 244 235 144 192 227 185 280 295 201 211 267 206 149 176 249 239 232 218 243 256 237 211 228
326 333 328 330 328 322 322 315 288 289 278 243 240 272 244 231 208 214 230 226 226 248 224 199 191 185 170 164 215 214 212 241 200 236 190 188 253 262 224 197 222 240 249 229 222
317 325 325 329 327 324 323 336 1 332 330 255 214 254 288 232 225 226 200 193 208 197 198 182 186 211 207 190 194 198 223 222 245 224 154 214 229 237 241 235 255 243 243 246 240
316 327 325 327 326 319 330 286 290 316 289 267 273 259 266 266 316 226 160 178 184 206 138 186 224 218 200 192 194 199 226 237 286 262 181 235 232 230 230 236 215 237 235 230 243
313 316 320 328 323 342 324 275 325 15 278 272 231 250 235 232 232 256 176 188 196 194 192 198 216 198 198 200 207 216 217 227 232 326 210 34 279 245 254 231 254 252 242 240 229
307 313 319 334 347 339 299 280 311 108 269 260 220 244 206 199 250 224 214 187 194 205 197 220 213 190 205 218 203 223 201 222 226 190 236 160 271 269 241 247 253 254 234 239 236
309 314 316 323 265 262 296 339 321 275 283 244 219 295 172 194 152 208 207 198 201 180 180 211 186 194 207 215 202 223 177 201 208 206 155 230 267 259 239 249 256 262 232 237 234
307 309 307 310 247 246 302 321 314 266 245 288 224 201 151 199 204 259 173 219 207 225 210 214 182 185 209 211 206 142 150 94 70 129 241 196 199 223 213 232 253 248 236 236 230
301 301 297 265 255 202 15 321 254 210 300 263 350 334 231 204 211 205 194 199 192 190 203 225 222 214 152 198 175 179 134 213 238 196 234 190 221 247 230 244 225 261 235 204 183
301 301 278 257 240 190 110 249 224 235 232 297 351 316 290 220 211 213 226 206 197 197 139 200 203 213 189 205 183 196 184 173 199 193 208 175 236 250 221 230 213 234 205 188 185
329 290 271 261 224 119 179 228 245 235 254 322 343 295 282 258 259 196 215 218 199 209 195 193 231 189 194 187 171 199 208 186 93 24 103 210 282 302 252 212 209 207 188 207 201
304 284 256 232 139 138 194 232 244 236 285 307 268 261 315 353 338 219 197 211 207 205 207 193 226 228 203 168 201 177 167 162 176 175 218 262 256 222 238 205 193 196 197 208 220
66 317 276 112 108 185 223 221 239 250 271 269 265 264 278 306 322 324 302 196 196 203 209 216 221 198 164 203 192 168 181 164 172 157 182 219 254 204 214 211 191 202 202 190 201
161 274 202 72 55 205 237 224 286 258 264 263 251 264 265 272 259 272 255 304 293 199 204 201 195 227 196 190 209 200 188 163 186 215 216 149 248 238 221 217 184 197 196 195 194
244 268 299 131 183 237 215 234 245 278 269 244 255 257 285 297 255 220 280 301 303 250 202 197 182 192 199 234 279 204 189 199 189 86 204 196 246 232 224 189 201 172 190 187 185
160 271 297 227 205 186 249 253 263 233 254 241 271 253 250 255 251 247 288 279 340 335 309 195 183 209 204 199 194 197 207 196 192 160 210 222 215 209 213 182 190 201 189 182 188
181 226 224 274 297 287 311 155 266 276 221 239 279 14 359 280 270 273 292 319 314 317 321 231 204 203 223 250 192 210 206 191 195 217 191 226 202 207 196 195 203 203 186 175 188
181 203 231 266 265 267 271 224 262 268 273 275 273 326 315 278 289 288 312 297 260 330 313 320 196 186 216 231 223 205 201 198 205 222 221 180 223 183 232 190 160 194 182 200 213
235 202 146 253 245 158 223 231 253 298 285 254 273 299 295 294 293 301 289 280 233 213 325 304 305 181 215 207 234 227 197 196 213 215 213 218 209 174 196 212 208 205 194 200 201